AFR718 LFPG-LFLL

Flight info

Callsign AFR718
Flight time 0h 43m
Altitude 27000
Route OKASI DCT OKEKO DCT OKEPI DCT MOU/N0365F190 A3 FEDZI
Aircraft A20N/M-SDE2E3FGHIRWXY/LB1

Departure

Time 2026-05-05 20:02
Airport Charles de Gaulle International Airport (LFPG)

Arrival

Time 2026-05-05 20:45
Airport Lyon Saint-Exupéry Airport (LFLL)
Time Latitude Longitude Altitude Speed Heading
2026-05-05 19:39 49.00567 2.56736 363 ft 0 kts 175°
2026-05-05 19:47 49.00571 2.56735 362 ft 1 kts 175°
2026-05-05 19:47 49.00579 2.56734 361 ft 1 kts 175°
2026-05-05 19:47 49.00593 2.56732 358 ft 2 kts 177°
2026-05-05 19:47 49.00608 2.56733 354 ft 2 kts 198°
2026-05-05 19:48 49.00622 2.56742 364 ft 2 kts 223°
2026-05-05 19:48 49.00627 2.56751 364 ft 0 kts 263°
2026-05-05 19:51 49.00627 2.56750 364 ft 0 kts 263°
2026-05-05 19:52 49.00625 2.56731 358 ft 5 kts 263°
2026-05-05 19:52 49.00619 2.56651 354 ft 9 kts 264°
2026-05-05 19:52 49.00613 2.56555 354 ft 9 kts 265°
2026-05-05 19:52 49.00609 2.56468 354 ft 8 kts 265°
2026-05-05 19:53 49.00605 2.56384 354 ft 8 kts 266°
2026-05-05 19:53 49.00601 2.56297 354 ft 8 kts 265°
2026-05-05 19:53 49.00595 2.56205 354 ft 9 kts 264°
2026-05-05 19:53 49.00588 2.56110 360 ft 9 kts 260°
2026-05-05 19:54 49.00569 2.56016 357 ft 8 kts 253°
2026-05-05 19:54 49.00563 2.55932 361 ft 8 kts 273°
2026-05-05 19:54 49.00567 2.55844 360 ft 8 kts 267°
2026-05-05 19:54 49.00562 2.55775 362 ft 6 kts 263°
2026-05-05 19:55 49.00557 2.55704 357 ft 8 kts 263°
2026-05-05 19:55 49.00552 2.55618 360 ft 8 kts 268°
2026-05-05 19:55 49.00550 2.55532 361 ft 8 kts 267°
2026-05-05 19:55 49.00545 2.55444 354 ft 9 kts 260°
2026-05-05 19:56 49.00514 2.55364 356 ft 9 kts 224°
2026-05-05 19:56 49.00475 2.55337 358 ft 10 kts 192°
2026-05-05 19:56 49.00418 2.55343 357 ft 8 kts 166°
2026-05-05 19:56 49.00339 2.55376 358 ft 10 kts 164°
2026-05-05 19:57 49.00294 2.55396 358 ft 10 kts 164°
2026-05-05 19:57 49.00221 2.55428 362 ft 11 kts 163°
2026-05-05 19:57 49.00144 2.55462 354 ft 12 kts 163°
2026-05-05 19:57 49.00065 2.55497 361 ft 11 kts 163°
2026-05-05 19:58 48.99994 2.55528 362 ft 11 kts 165°
2026-05-05 19:58 48.99929 2.55559 357 ft 8 kts 158°
2026-05-05 19:58 48.99881 2.55611 358 ft 9 kts 135°
2026-05-05 19:58 48.99846 2.55685 362 ft 9 kts 113°
2026-05-05 19:59 48.99838 2.55722 359 ft 0 kts 109°
2026-05-05 19:59 48.99834 2.55740 354 ft 6 kts 109°
2026-05-05 19:59 48.99802 2.55802 361 ft 5 kts 167°
2026-05-05 19:59 48.99785 2.55794 354 ft 0 kts 198°
2026-05-05 20:00 48.99765 2.55798 361 ft 8 kts 173°
2026-05-05 20:00 48.99706 2.55811 356 ft 9 kts 172°
2026-05-05 20:00 48.99640 2.55822 355 ft 10 kts 173°
2026-05-05 20:00 48.99603 2.55887 355 ft 9 kts 89°
2026-05-05 20:01 48.99610 2.56023 354 ft 30 kts 85°
2026-05-05 20:01 48.99648 2.56710 355 ft 97 kts 85°
2026-05-05 20:01 48.99717 2.58021 360 ft 148 kts 85°
2026-05-05 20:01 48.99763 2.59568 960 ft 142 kts 82°
2026-05-05 20:02 48.99835 2.61030 1673 ft 137 kts 78°
2026-05-05 20:02 48.99924 2.62488 2265 ft 144 kts 78°
2026-05-05 20:02 49.00030 2.64092 2692 ft 162 kts 81°
2026-05-05 20:02 49.00150 2.65935 3112 ft 185 kts 82°
2026-05-05 20:03 49.00268 2.68008 3567 ft 211 kts 83°
2026-05-05 20:03 49.00392 2.70364 4193 ft 235 kts 84°
2026-05-05 20:03 49.00526 2.72967 4882 ft 258 kts 84°
2026-05-05 20:03 49.00668 2.75765 5782 ft 268 kts 84°
2026-05-05 20:04 49.00776 2.78635 6841 ft 274 kts 93°
2026-05-05 20:04 49.00501 2.81523 7874 ft 278 kts 100°
2026-05-05 20:04 48.99985 2.84367 8933 ft 281 kts 119°
2026-05-05 20:04 48.98749 2.86651 9961 ft 282 kts 145°
2026-05-05 20:05 48.96956 2.87982 10606 ft 298 kts 168°
2026-05-05 20:05 48.94815 2.88110 10977 ft 321 kts 191°
2026-05-05 20:05 48.92737 2.86975 11871 ft 322 kts 206°
2026-05-05 20:05 48.90723 2.85426 12834 ft 329 kts 207°
2026-05-05 20:06 48.88653 2.83889 13749 ft 334 kts 205°
2026-05-05 20:06 48.86511 2.82458 14612 ft 336 kts 203°
2026-05-05 20:06 48.84331 2.81123 15511 ft 340 kts 202°
2026-05-05 20:06 48.82112 2.79830 16349 ft 344 kts 201°
2026-05-05 20:07 48.79855 2.78545 17173 ft 348 kts 200°
2026-05-05 20:07 48.77575 2.77255 18015 ft 352 kts 200°
2026-05-05 20:07 48.75183 2.76232 18487 ft 365 kts 187°
2026-05-05 20:07 48.72628 2.76412 19025 ft 372 kts 168°
2026-05-05 20:08 48.70115 2.77429 19772 ft 375 kts 163°
2026-05-05 20:08 48.67651 2.78627 20449 ft 379 kts 162°
2026-05-05 20:08 48.65133 2.79864 21131 ft 383 kts 162°
2026-05-05 20:08 48.62571 2.81079 21810 ft 387 kts 162°
2026-05-05 20:09 48.59982 2.82267 22449 ft 391 kts 162°
2026-05-05 20:09 48.57358 2.83444 23116 ft 395 kts 162°
2026-05-05 20:09 48.54705 2.84621 23722 ft 399 kts 162°
2026-05-05 20:09 48.52031 2.85803 24280 ft 402 kts 162°
2026-05-05 20:10 48.49333 2.86993 24830 ft 405 kts 162°
2026-05-05 20:10 48.46608 2.88195 25369 ft 408 kts 162°
2026-05-05 20:10 48.43872 2.89401 25899 ft 411 kts 162°
2026-05-05 20:10 48.41116 2.90615 26398 ft 415 kts 162°
2026-05-05 20:11 48.38326 2.91844 26752 ft 419 kts 162°
2026-05-05 20:11 48.35550 2.93066 26830 ft 419 kts 162°
2026-05-05 20:11 48.32744 2.94297 26826 ft 419 kts 162°
2026-05-05 20:11 48.29944 2.95524 26826 ft 419 kts 162°
2026-05-05 20:12 48.27152 2.96746 26826 ft 419 kts 162°
2026-05-05 20:12 48.24356 2.97970 26826 ft 419 kts 162°
2026-05-05 20:12 48.21558 2.99192 26827 ft 419 kts 162°
2026-05-05 20:12 48.18765 3.00412 26826 ft 415 kts 163°
2026-05-05 20:13 48.16007 3.01618 26831 ft 414 kts 163°
2026-05-05 20:13 48.13236 3.02828 26829 ft 414 kts 163°
2026-05-05 20:13 48.10471 3.04032 26830 ft 415 kts 163°
2026-05-05 20:13 48.07695 3.05238 26833 ft 414 kts 163°
2026-05-05 20:14 48.04959 3.06426 26831 ft 415 kts 163°
2026-05-05 20:14 48.02188 3.07628 26832 ft 415 kts 163°
2026-05-05 20:14 47.99411 3.08831 26839 ft 414 kts 163°
2026-05-05 20:14 47.96643 3.10029 26847 ft 414 kts 163°
2026-05-05 20:15 47.93876 3.11226 26845 ft 413 kts 163°
2026-05-05 20:15 47.91108 3.12421 26839 ft 413 kts 164°
2026-05-05 20:15 47.88340 3.13615 26841 ft 413 kts 164°
2026-05-05 20:15 47.85576 3.14806 26845 ft 413 kts 164°
2026-05-05 20:16 47.82807 3.15997 26854 ft 413 kts 164°
2026-05-05 20:16 47.80081 3.17169 26841 ft 414 kts 164°
2026-05-05 20:16 47.77316 3.18356 26836 ft 413 kts 164°
2026-05-05 20:16 47.74554 3.19541 26851 ft 413 kts 164°
2026-05-05 20:17 47.71791 3.20726 26842 ft 413 kts 164°
2026-05-05 20:17 47.69030 3.21908 26842 ft 413 kts 164°
2026-05-05 20:17 47.66269 3.23088 26859 ft 413 kts 164°
2026-05-05 20:17 47.63510 3.24266 26847 ft 413 kts 164°
2026-05-05 20:18 47.60740 3.25447 26850 ft 413 kts 164°
2026-05-05 20:18 47.57981 3.26623 26858 ft 413 kts 164°
2026-05-05 20:18 47.55219 3.27798 26862 ft 413 kts 164°
2026-05-05 20:18 47.52463 3.28972 26859 ft 412 kts 165°
2026-05-05 20:19 47.49710 3.30142 26862 ft 412 kts 165°
2026-05-05 20:19 47.46954 3.31311 26853 ft 412 kts 165°
2026-05-05 20:19 47.44227 3.32466 26862 ft 412 kts 165°
2026-05-05 20:19 47.41473 3.33633 26869 ft 410 kts 165°
2026-05-05 20:20 47.38722 3.34797 26870 ft 410 kts 165°
2026-05-05 20:20 47.35978 3.35956 26867 ft 411 kts 165°
2026-05-05 20:20 47.33224 3.37118 26859 ft 410 kts 166°
2026-05-05 20:20 47.30488 3.38274 26872 ft 409 kts 166°
2026-05-05 20:21 47.27752 3.39427 26872 ft 409 kts 166°
2026-05-05 20:21 47.25011 3.40579 26870 ft 410 kts 166°
2026-05-05 20:21 47.22303 3.41715 26873 ft 409 kts 166°
2026-05-05 20:21 47.19561 3.42866 26872 ft 409 kts 166°
2026-05-05 20:22 47.16819 3.44015 26875 ft 409 kts 166°
2026-05-05 20:22 47.14082 3.45161 26873 ft 409 kts 166°
2026-05-05 20:22 47.11341 3.46308 26873 ft 409 kts 166°
2026-05-05 20:22 47.08608 3.47451 26857 ft 409 kts 166°
2026-05-05 20:23 47.05870 3.48593 26654 ft 408 kts 166°
2026-05-05 20:23 47.03141 3.49731 26397 ft 406 kts 166°
2026-05-05 20:23 47.00423 3.50863 26140 ft 404 kts 166°
2026-05-05 20:23 46.97723 3.51987 25890 ft 403 kts 166°
2026-05-05 20:24 46.95027 3.53107 25635 ft 402 kts 166°
2026-05-05 20:24 46.92359 3.54215 25387 ft 400 kts 166°
2026-05-05 20:24 46.89680 3.55326 25137 ft 399 kts 166°
2026-05-05 20:24 46.87015 3.56430 24888 ft 397 kts 166°
2026-05-05 20:25 46.84356 3.57530 24649 ft 396 kts 166°
2026-05-05 20:25 46.81705 3.58626 24409 ft 395 kts 166°
2026-05-05 20:25 46.79066 3.59716 24169 ft 394 kts 166°
2026-05-05 20:25 46.76435 3.60801 23931 ft 392 kts 166°
2026-05-05 20:26 46.73851 3.61886 23696 ft 392 kts 163°
2026-05-05 20:26 46.71404 3.63649 23458 ft 395 kts 148°
2026-05-05 20:26 46.69370 3.66364 23181 ft 399 kts 132°
2026-05-05 20:26 46.67656 3.69541 22908 ft 399 kts 130°
2026-05-05 20:27 46.65973 3.72748 22628 ft 397 kts 130°
2026-05-05 20:27 46.64303 3.75933 22373 ft 395 kts 130°
2026-05-05 20:27 46.62627 3.79105 22096 ft 393 kts 130°
2026-05-05 20:27 46.60973 3.82217 21827 ft 392 kts 130°
2026-05-05 20:28 46.59301 3.85347 21570 ft 390 kts 130°
2026-05-05 20:28 46.57638 3.88453 21311 ft 389 kts 130°
2026-05-05 20:28 46.55978 3.91547 21052 ft 387 kts 130°
2026-05-05 20:28 46.54324 3.94626 20795 ft 386 kts 130°
2026-05-05 20:29 46.52677 3.97689 20540 ft 384 kts 130°
2026-05-05 20:29 46.51033 4.00743 20287 ft 383 kts 130°
2026-05-05 20:29 46.49392 4.03789 20021 ft 381 kts 130°
2026-05-05 20:29 46.47764 4.06808 19771 ft 379 kts 130°
2026-05-05 20:30 46.46136 4.09822 19304 ft 379 kts 130°
2026-05-05 20:30 46.44505 4.12837 18736 ft 378 kts 130°
2026-05-05 20:30 46.42888 4.15826 18164 ft 375 kts 130°
2026-05-05 20:30 46.41289 4.18779 17562 ft 370 kts 130°
2026-05-05 20:31 46.39709 4.21694 16997 ft 365 kts 130°
2026-05-05 20:31 46.38147 4.24574 16441 ft 361 kts 130°
2026-05-05 20:31 46.36622 4.27381 15909 ft 357 kts 130°
2026-05-05 20:31 46.35094 4.30190 15370 ft 353 kts 130°
2026-05-05 20:32 46.33576 4.32977 14837 ft 351 kts 130°
2026-05-05 20:32 46.32072 4.35735 14312 ft 348 kts 130°
2026-05-05 20:32 46.30573 4.38484 13786 ft 346 kts 130°
2026-05-05 20:32 46.29080 4.41218 13226 ft 343 kts 130°
2026-05-05 20:33 46.27608 4.43912 12721 ft 339 kts 131°
2026-05-05 20:33 46.26172 4.46538 12223 ft 336 kts 131°
2026-05-05 20:33 46.24731 4.49170 11724 ft 332 kts 131°
2026-05-05 20:33 46.23318 4.51746 11239 ft 329 kts 131°
2026-05-05 20:34 46.21900 4.54330 10747 ft 327 kts 131°
2026-05-05 20:34 46.20493 4.56893 10272 ft 324 kts 131°
2026-05-05 20:34 46.19118 4.59397 10107 ft 311 kts 131°
2026-05-05 20:34 46.17804 4.61789 9976 ft 298 kts 131°
2026-05-05 20:35 46.16530 4.64104 9627 ft 293 kts 131°
2026-05-05 20:35 46.15279 4.66373 9433 ft 284 kts 131°
2026-05-05 20:35 46.14036 4.68624 9235 ft 290 kts 131°
2026-05-05 20:35 46.12764 4.70923 8861 ft 295 kts 131°
2026-05-05 20:36 46.11491 4.73226 8484 ft 293 kts 130°
2026-05-05 20:36 46.10235 4.75500 8179 ft 287 kts 130°
2026-05-05 20:36 46.08999 4.77736 7795 ft 283 kts 131°
2026-05-05 20:36 46.07793 4.79914 7432 ft 280 kts 130°
2026-05-05 20:37 46.06579 4.82105 7055 ft 278 kts 130°
2026-05-05 20:37 46.05765 4.83571 6806 ft 277 kts 130°
2026-05-05 20:37 46.04184 4.86419 6327 ft 274 kts 130°
2026-05-05 20:37 46.03006 4.88537 5959 ft 272 kts 130°
2026-05-05 20:38 46.01818 4.90675 5585 ft 270 kts 130°
2026-05-05 20:38 46.00650 4.92776 5223 ft 268 kts 130°
2026-05-05 20:38 45.99492 4.94854 4863 ft 266 kts 130°
2026-05-05 20:38 45.98337 4.96928 4490 ft 265 kts 130°
2026-05-05 20:39 45.97188 4.98989 4132 ft 263 kts 130°
2026-05-05 20:39 45.96062 5.01008 3779 ft 261 kts 130°
2026-05-05 20:39 45.94932 5.03032 3564 ft 254 kts 130°
2026-05-05 20:39 45.93850 5.04972 3469 ft 244 kts 130°
2026-05-05 20:40 45.92615 5.06533 3271 ft 232 kts 158°
2026-05-05 20:40 45.91096 5.07057 3177 ft 220 kts 175°
2026-05-05 20:40 45.90101 5.07178 3118 ft 213 kts 178°
2026-05-05 20:40 45.88665 5.07316 3032 ft 201 kts 176°
2026-05-05 20:41 45.86901 5.07536 3007 ft 182 kts 177°
2026-05-05 20:41 45.85697 5.07684 3042 ft 165 kts 176°
2026-05-05 20:41 45.84622 5.07818 3024 ft 144 kts 177°
2026-05-05 20:41 45.84001 5.07895 3012 ft 129 kts 177°
2026-05-05 20:42 45.83029 5.08003 2717 ft 144 kts 176°
2026-05-05 20:42 45.82098 5.08132 2574 ft 135 kts 176°
2026-05-05 20:42 45.81169 5.08260 2373 ft 133 kts 177°
2026-05-05 20:42 45.80250 5.08371 2204 ft 132 kts 175°
2026-05-05 20:43 45.79333 5.08464 2034 ft 131 kts 178°
2026-05-05 20:43 45.78431 5.08542 1925 ft 132 kts 176°
2026-05-05 20:43 45.77520 5.08691 1706 ft 131 kts 175°
2026-05-05 20:43 45.76611 5.08806 1492 ft 131 kts 175°
2026-05-05 20:44 45.75700 5.08914 1262 ft 130 kts 175°
2026-05-05 20:44 45.74793 5.09037 1095 ft 131 kts 175°
2026-05-05 20:44 45.73898 5.09141 921 ft 130 kts 175°
2026-05-05 20:44 45.73013 5.09248 802 ft 125 kts 176°
2026-05-05 20:45 45.71959 5.09376 819 ft 32 kts 179°
2026-05-05 20:45 45.71757 5.09327 820 ft 22 kts 201°
2026-05-05 20:45 45.71654 5.09256 816 ft 9 kts 219°
2026-05-05 20:46 45.71636 5.09163 814 ft 9 kts 265°
2026-05-05 20:46 45.71634 5.09139 814 ft 0 kts 265°
2026-05-05 20:48 45.71633 5.09123 814 ft 4 kts 265°
2026-05-05 20:48 45.71630 5.09062 814 ft 7 kts 264°
2026-05-05 20:49 45.71624 5.08986 808 ft 8 kts 264°
2026-05-05 20:49 45.71618 5.08900 814 ft 5 kts 264°
2026-05-05 20:49 45.71613 5.08835 813 ft 9 kts 264°
2026-05-05 20:49 45.71604 5.08728 808 ft 0 kts 263°
2026-05-05 20:50 45.71607 5.08725 808 ft 0 kts 293°
2026-05-05 20:50 45.71615 5.08723 808 ft 5 kts 341°
2026-05-05 20:50 45.71676 5.08714 808 ft 12 kts 355°
2026-05-05 20:50 45.71758 5.08706 808 ft 12 kts 355°
2026-05-05 20:51 45.71839 5.08697 808 ft 10 kts 355°
2026-05-05 20:51 45.71910 5.08688 807 ft 11 kts 352°
2026-05-05 20:51 45.71948 5.08609 805 ft 10 kts 272°
2026-05-05 20:51 45.71945 5.08501 802 ft 12 kts 265°
2026-05-05 20:52 45.71953 5.08389 800 ft 12 kts 283°
2026-05-05 20:52 45.71970 5.08293 798 ft 8 kts 281°
2026-05-05 20:52 45.71946 5.08229 797 ft 8 kts 214°
2026-05-05 20:52 45.71905 5.08203 797 ft 4 kts 225°
2026-05-05 20:53 45.71901 5.08159 796 ft 4 kts 268°
2026-05-05 20:53 45.71901 5.08104 796 ft 5 kts 269°
2026-05-05 20:53 45.71900 5.08060 796 ft 0 kts 269°